Location: El Carrer d�Abaix
(41.5797°N, 2.1791°E)
Time: 11:13:12
(UTC+00:00)

STARLINK-1378 - Pass Details

Date: 08 October 2020
Orbit: 549 x 550 km, 53.0° (Epoch: 21 October)

Event Time Altitude Azimuth Distance (km) Brightness Sun altitude
Exits shadow 04:21:29 12° 331° (NNW) 1,679 5.9 -18.4°
Maximum altitude 04:23:40 17° 6° (N) 1,423 5.9 -18.0°
Drops below altitude 10° 04:26:27 10° 48° (NE) 1,824 7.1 -17.5°
Sets 04:29:20 0° 69° (ENE) 2,718 8.7 -17.0°
